EW4565 Weather Reports


Display with metric or nautical units.
time (UTC)temp
F
wind
direction
speed
MPH
gust
MPH
rain 1hr
in
rain 24hr
in
rain mn
in
humidity
%
barometer
mb
20260901031702 66 293 0.0 0.0 0.00 0.00 0.00 61 1011.2
20260901031200 66 293 0.0 0.0 0.00 0.00 0.00 58 1011.3
20260901031014 67 293 0.0 0.0 0.00 0.00 0.00 57 1011.1
20260901030201 67 293 0.0 0.0 0.00 0.00 0.00 57 1011.1
20260901025700 67 293 0.0 0.0 0.00 0.00 0.00 56 1011.1
20260901025202 68 293 0.0 0.0 0.00 0.00 0.00 55 1011.1
20260901024702 68 293 0.0 0.0 0.00 0.00 0.00 55 1010.9
20260901024200 69 293 0.0 0.0 0.00 0.00 0.00 54 1010.9
20260901023703 69 293 0.0 0.0 0.00 0.00 0.00 52 1010.9
20260901023200 69 293 0.0 0.0 0.00 0.00 0.00 52 1010.9
20260901022701 69 293 0.0 3.0 0.00 0.00 0.00 51 1010.9
20260901022203 70 293 0.0 3.0 0.00 0.00 0.00 51 1010.9
20260901022008 70 293 0.0 3.0 0.00 0.00 0.00 50 1010.9
20260901021204 70 293 0.0 3.0 0.00 0.00 0.00 49 1010.9
20260901020707 71 293 0.0 3.0 0.00 0.00 0.00 47 1010.9
20260901020204 71 293 0.0 3.0 0.00 0.00 0.00 46 1010.9
20260901015705 71 293 0.0 3.0 0.00 0.00 0.00 46 1010.9
20260901015205 72 293 0.0 2.0 0.00 0.00 0.00 45 1011.1
20260901014707 72 293 0.0 2.0 0.00 0.00 0.00 45 1011.2
20260901014532 73 293 0.0 4.0 0.00 0.00 0.00 44 1011.2
20260901013705 73 293 0.0 4.0 0.00 0.00 0.00 44 1011.2
20260901013530 74 293 0.0 4.0 0.00 0.00 0.00 43 1011.2
20260901012706 74 293 0.0 3.0 0.00 0.00 0.00 44 1011.2
20260901012204 75 296 0.0 4.0 0.00 0.00 0.00 44 1011.3
20260901011703 75 293 0.0 4.0 0.00 0.00 0.00 44 1011.3
20260901011203 75 293 0.0 3.0 0.00 0.00 0.00 42 1011.4
20260901011023 76 293 0.0 3.0 0.00 0.00 0.00 43 1011.5
20260901010154 76 293 0.0 4.0 0.00 0.00 0.00 43 1011.5
20260901005652 76 293 0.0 4.0 0.00 0.00 0.00 43 1011.5
20260901005152 76 294 1.0 7.0 0.00 0.00 0.00 43 1011.5
20260901004652 76 295 1.0 7.0 0.00 0.00 0.00 42 1011.6
20260901004154 76 301 1.0 4.0 0.00 0.00 0.00 42 1011.6
20260901003653 76 301 1.0 4.0 0.00 0.00 0.00 43 1011.5
20260901003153 77 297 1.0 4.0 0.00 0.00 0.00 41 1011.7
20260901002654 77 299 1.0 4.0 0.00 0.00 0.00 42 1011.6
20260901002153 77 295 1.0 7.0 0.00 0.00 0.00 41 1011.6
20260901001652 78 276 1.0 8.0 0.00 0.00 0.00 40 1011.6
20260901001350 79 287 0.0 5.0 0.00 0.00 0.00 39 1011.7
20260901001304 78 307 1.0 8.0 0.00 0.00 0.00 39 1011.7
20260901000149 79 280 1.0 6.0 0.00 0.00 0.00 40 1011.8
20260831235649 79 280 1.0 6.0 0.00 0.00 0.00 39 1011.8
20260831235520 79 291 0.0 4.0 0.00 0.00 0.00 40 1011.8
20260831234645 79 289 0.0 5.0 0.00 0.00 0.00 40 1011.8
20260831234149 78 241 0.0 5.0 0.00 0.00 0.00 40 1011.8
20260831233646 78 241 1.0 5.0 0.00 0.00 0.00 41 1011.8
20260831233148 78 232 1.0 5.0 0.00 0.00 0.00 41 1011.9
20260831232647 79 291 1.0 5.0 0.00 0.00 0.00 41 1012.0
20260831232144 79 293 1.0 5.0 0.00 0.00 0.00 42 1012.1
20260831231644 79 293 1.0 5.0 0.00 0.00 0.00 41 1012.1
20260831231141 80 295 0.0 3.0 0.00 0.00 0.00 41 1012.2
20260831230643 80 301 0.0 5.0 0.00 0.00 0.00 42 1012.2
20260831230147 80 301 0.0 5.0 0.00 0.00 0.00 40 1012.1
20260831225646 80 306 0.0 4.0 0.00 0.00 0.00 40 1012.2
20260831225141 80 308 0.0 4.0 0.00 0.00 0.00 41 1012.3
20260831225016 79 309 1.0 6.0 0.00 0.00 0.00 41 1012.4
20260831224139 79 310 1.0 6.0 0.00 0.00 0.00 42 1012.3
20260831223639 79 274 1.0 4.0 0.00 0.00 0.00 39 1012.4
20260831223157 79 301 1.0 4.0 0.00 0.00 0.00 40 1012.4
20260831222755 79 299 1.0 4.0 0.00 0.00 0.00 39 1012.6
20260831222138 79 212 0.0 4.0 0.00 0.00 0.00 39 1012.8
20260831220952 78 216 0.0 4.0 0.00 0.00 0.00 39 1013.0
20260831220131 78 214 1.0 3.0 0.00 0.00 0.00 40 1013.0
20260831215630 77 204 1.0 3.0 0.00 0.00 0.00 40 1013.0
20260831215129 77 208 0.0 3.0 0.00 0.00 0.00 41 1013.1
20260831214957 77 207 0.0 4.0 0.00 0.00 0.00 41 1013.1
20260831214449 77 204 0.0 4.0 0.00 0.00 0.00 41 1013.2
20260831213629 77 198 0.0 4.0 0.00 0.00 0.00 41 1013.2
20260831213130 77 191 0.0 3.0 0.00 0.00 0.00 40 1013.3
20260831212631 77 171 1.0 5.0 0.00 0.00 0.00 41 1013.3
20260831212131 77 171 0.0 8.0 0.00 0.00 0.00 42 1013.4
20260831211631 77 228 0.0 8.0 0.00 0.00 0.00 42 1013.4
20260831211449 77 204 1.0 8.0 0.00 0.00 0.00 41 1013.5
20260831210630 76 205 1.0 8.0 0.00 0.00 0.00 44 1013.5
20260831210130 76 252 0.0 8.0 0.00 0.00 0.00 45 1013.6
20260831205630 76 255 0.0 8.0 0.00 0.00 0.00 44 1013.6
20260831205500 76 174 1.0 4.0 0.00 0.00 0.00 44 1013.7
20260831204631 76 97 1.0 4.0 0.00 0.00 0.00 45 1013.8
20260831204130 76 67 0.0 4.0 0.00 0.00 0.00 44 1013.9
20260831203629 75 197 0.0 4.0 0.00 0.00 0.00 46 1014.0
20260831203130 74 210 0.0 5.0 0.00 0.00 0.00 46 1014.1
20260831202629 74 164 0.0 5.0 0.00 0.00 0.00 46 1014.2
20260831202132 74 138 1.0 5.0 0.00 0.00 0.00 45 1014.1
20260831201630 74 69 1.0 5.0 0.00 0.00 0.00 45 1014.1
20260831201451 74 112 1.0 4.0 0.00 0.00 0.00 45 1014.2
20260831200629 75 205 0.0 4.0 0.00 0.00 0.00 46 1014.5
20260831200129 74 201 0.0 4.0 0.00 0.00 0.00 47 1014.5
20260831195629 74 216 0.0 2.0 0.00 0.00 0.00 48 1014.6
20260831195132 74 218 0.0 1.0 0.00 0.00 0.00 48 1014.7
20260831194955 73 247 0.0 1.0 0.00 0.00 0.00 50 1014.7
20260831194133 73 247 0.0 5.0 0.00 0.00 0.00 50 1014.8
20260831193631 73 247 1.0 5.0 0.00 0.00 0.00 51 1015.0
20260831193131 72 95 1.0 7.0 0.00 0.00 0.00 53 1015.1
20260831192635 72 63 1.0 7.0 0.00 0.00 0.00 50 1015.1
20260831192337 72 349 0.0 2.0 0.00 0.00 0.00 51 1015.3
20260831192242 72 8 0.0 3.0 0.00 0.00 0.00 53 1015.3
20260831191132 71 349 0.0 3.0 0.00 0.00 0.00 52 1015.4
20260831190633 71 348 0.0 3.0 0.00 0.00 0.00 53 1015.4
20260831190132 70 349 0.0 3.0 0.00 0.00 0.00 53 1015.6
20260831185950 70 343 0.0 7.0 0.00 0.00 0.00 55 1015.5
20260831185132 70 297 1.0 7.0 0.00 0.00 0.00 55 1015.7
20260831184633 70 64 1.0 7.0 0.00 0.00 0.00 55 1015.8
20260831184131 70 163 1.0 7.0 0.00 0.00 0.00 55 1015.8
20260831183633 70 222 0.0 3.0 0.00 0.00 0.00 57 1015.9
20260831183452 69 216 0.0 3.0 0.00 0.00 0.00 58 1016.1
20260831182632 69 216 0.0 3.0 0.00 0.00 0.00 59 1016.1
20260831182450 69 214 0.0 3.0 0.00 0.00 0.00 59 1016.3
20260831181634 69 204 0.0 3.0 0.00 0.00 0.00 58 1016.3
20260831181131 69 204 0.0 3.0 0.00 0.00 0.00 59 1016.3
20260831180635 68 204 0.0 3.0 0.00 0.00 0.00 59 1016.4
20260831180131 68 204 0.0 3.0 0.00 0.00 0.00 61 1016.4
20260831175957 67 204 0.0 3.0 0.00 0.00 0.00 60 1016.4
20260831175134 67 258 0.0 3.0 0.00 0.00 0.00 61 1016.5
20260831174634 66 272 0.0 3.0 0.00 0.00 0.00 62 1016.4
20260831174454 66 275 0.0 3.0 0.00 0.00 0.00 63 1016.4
20260831173634 66 278 0.0 2.0 0.00 0.00 0.00 63 1016.6
20260831173448 66 278 0.0 3.0 0.00 0.00 0.00 63 1016.6
20260831172632 66 279 0.0 3.0 0.00 0.00 0.00 64 1016.7
20260831172451 65 279 0.0 4.0 0.00 0.00 0.00 64 1016.7
20260831171633 66 279 0.0 4.0 0.00 0.00 0.00 64 1016.8
20260831171134 65 279 0.0 4.0 0.00 0.00 0.00 65 1016.8
20260831170954 65 278 0.0 4.0 0.00 0.00 0.00 68 1016.9
20260831170131 65 278 0.0 6.0 0.00 0.00 0.00 67 1017.0
20260831165633 65 278 0.0 6.0 0.00 0.00 0.00 67 1017.0
20260831165141 65 283 0.0 3.0 0.00 0.00 0.00 67 1017.1
20260831164636 65 283 0.0 3.0 0.00 0.00 0.00 67 1017.1
20260831164130 65 283 0.0 2.0 0.00 0.00 0.00 68 1017.2
20260831163954 65 283 0.0 1.0 0.00 0.00 0.00 68 1017.2
20260831163448 65 283 0.0 2.0 0.00 0.00 0.00 70 1017.2
20260831162629 65 283 0.0 2.0 0.00 0.00 0.00 69 1017.3
20260831162132 64 283 0.0 2.0 0.00 0.00 0.00 68 1017.3
20260831161629 64 283 0.0 2.0 0.00 0.00 0.00 71 1017.3
20260831161444 63 283 0.0 2.0 0.00 0.00 0.00 72 1017.3
20260831160630 63 283 0.0 2.0 0.00 0.00 0.00 72 1017.3
20260831160131 63 284 0.0 2.0 0.00 0.00 0.00 72 1017.3
20260831155946 63 290 0.0 1.0 0.00 0.00 0.00 72 1017.3
20260831155128 63 290 0.0 1.0 0.00 0.00 0.00 71 1017.3
20260831154946 63 291 0.0 1.0 0.00 0.00 0.00 71 1017.4
20260831154130 63 290 0.0 1.0 0.00 0.00 0.00 72 1017.5
20260831153630 62 290 0.0 0.0 0.00 0.00 0.00 73 1017.4
20260831153130 62 291 0.0 0.0 0.00 0.00 0.00 76 1017.3
20260831152628 61 290 0.0 0.0 0.00 0.00 0.00 77 1017.3
20260831152130 61 290 0.0 0.0 0.00 0.00 0.00 77 1017.4
20260831151630 60 290 0.0 0.0 0.00 0.00 0.00 77 1017.4
20260831151130 60 290 0.0 0.0 0.00 0.00 0.00 78 1017.3
20260831150630 59 290 0.0 0.0 0.00 0.00 0.00 81 1017.3
20260831150129 58 291 0.0 0.0 0.00 0.00 0.00 82 1017.4
20260831145628 57 290 0.0 0.0 0.00 0.00 0.00 83 1017.5
20260831145132 56 290 0.0 0.0 0.00 0.00 0.00 84 1017.4
20260831144630 56 291 0.0 0.0 0.00 0.00 0.00 85 1017.5
20260831144130 56 290 0.0 0.0 0.00 0.00 0.00 85 1017.3
20260831143630 55 290 0.0 0.0 0.00 0.00 0.00 85 1017.3
20260831143626 55 290 0.0 0.0 0.00 0.00 0.00 85 1017.3
20260831143620 55 291 0.0 0.0 0.00 0.00 0.00 85 1017.3
20260831142128 55 290 0.0 0.0 0.00 0.00 0.00 85 1017.2
20260831141629 55 291 0.0 0.0 0.00 0.00 0.00 85 1017.2
20260831141131 55 290 0.0 0.0 0.00 0.00 0.00 85 1017.1
20260831140629 55 290 0.0 0.0 0.00 0.00 0.00 86 1017.1
20260831140132 55 291 0.0 0.0 0.00 0.00 0.00 86 1017.0
20260831135632 55 290 0.0 0.0 0.00 0.00 0.00 86 1017.0
20260831135134 55 290 0.0 0.0 0.00 0.00 0.00 86 1017.0
20260831135009 55 290 0.0 0.0 0.00 0.00 0.00 86 1017.0
20260831134132 55 290 0.0 0.0 0.00 0.00 0.00 86 1017.0
20260831133634 55 290 0.0 0.0 0.00 0.01 0.00 86 1016.9
20260831133132 55 290 0.0 0.0 0.00 0.01 0.00 86 1016.9
20260831132631 55 290 0.0 0.0 0.00 0.01 0.00 85 1016.8
20260831132132 56 290 0.0 0.0 0.00 0.01 0.00 85 1016.7
20260831131633 56 290 0.0 0.0 0.00 0.01 0.00 84 1016.7
20260831131350 56 290 0.0 0.0 0.00 0.02 0.00 84 1016.6
20260831130631 56 290 0.0 0.0 0.00 0.02 0.00 84 1016.5
20260831130132 56 290 0.0 0.0 0.00 0.02 0.00 83 1016.4
20260831125631 56 290 0.0 0.0 0.00 0.02 0.00 83 1016.5
20260831125132 56 290 0.0 0.0 0.00 0.02 0.00 83 1016.5
20260831124950 57 290 0.0 0.0 0.00 0.02 0.00 83 1016.6
20260831124449 57 290 0.0 0.0 0.00 0.02 0.00 82 1016.5
20260831123635 57 0.0 0.0 0.00 0.03 0.00 82 1016.4
20260831123131 57 0.0 0.0 0.00 0.03 0.00 82 1016.4
20260831122952 57 0.0 0.0 0.00 0.04 0.00 82 1016.4
20260831122948 57 0.0 0.0 0.00 0.04 0.00 82 1016.4
20260831121614 57 0.0 0.0 0.00 0.04 0.00 82 1016.4
20260831121112 57 290 0.0 0.0 0.00 0.04 0.00 82 1016.4
20260831120916 57 290 0.0 0.0 0.00 0.04 0.00 82 1016.4
20260831115920 57 290 0.0 0.0 0.00 0.04 0.00 82 1016.5
20260831115237 57 290 0.0 0.0 0.00 0.04 0.00 82 1016.6
20260831115158 57 290 0.0 0.0 0.00 0.04 0.00 82 1016.5
20260831114421 57 290 0.0 0.0 0.00 0.05 0.00 81 1016.6
20260831113601 58 290 0.0 0.0 0.00 0.05 0.00 81 1016.6
20260831113107 58 290 0.0 0.0 0.00 0.05 0.00 81 1016.5
20260831112606 58 290 0.0 3.0 0.00 0.05 0.00 81 1016.4
20260831112103 58 290 0.0 3.0 0.00 0.05 0.00 81 1016.4
20260831111606 58 290 0.0 3.0 0.00 0.05 0.00 81 1016.4
20260831111105 58 290 0.0 3.0 0.00 0.05 0.00 81 1016.5
20260831110605 58 290 0.0 3.0 0.00 0.05 0.00 81 1016.5
20260831110426 58 290 0.0 3.0 0.00 0.05 0.00 81 1016.4
20260831105604 58 290 0.0 4.0 0.00 0.05 0.00 81 1016.3
20260831105104 58 290 0.0 4.0 0.00 0.05 0.00 80 1016.3
20260831104602 58 287 0.0 6.0 0.00 0.05 0.00 80 1016.3
20260831104101 58 288 0.0 6.0 0.00 0.05 0.00 80 1016.2
20260831103600 58 297 0.0 3.0 0.00 0.05 0.00 80 1016.2
20260831103105 58 297 0.0 3.0 0.00 0.05 0.00 79 1016.1
20260831102608 58 297 0.0 2.0 0.00 0.05 0.00 79 1015.9
20260831102104 58 297 0.0 3.0 0.00 0.05 0.00 78 1015.9
20260831101604 58 297 0.0 3.0 0.00 0.05 0.00 78 1015.8
20260831101424 58 301 0.0 2.0 0.00 0.05 0.00 78 1015.7
20260831100602 58 301 0.0 2.0 0.00 0.05 0.00 79 1015.6
20260831100103 58 298 0.0 3.0 0.00 0.05 0.00 79 1015.6
20260831095601 58 299 0.0 4.0 0.00 0.05 0.00 79 1015.7
20260831095104 58 289 0.0 4.0 0.00 0.05 0.00 78 1015.8
20260831094603 58 295 0.0 4.0 0.00 0.05 0.00 78 1015.8
20260831094102 58 297 0.0 4.0 0.00 0.05 0.00 79 1015.8
20260831093602 58 286 1.0 5.0 0.00 0.05 0.00 79 1015.8
20260831093103 58 290 0.0 5.0 0.00 0.05 0.00 79 1015.9
20260831092604 58 293 0.0 2.0 0.00 0.05 0.00 79 1015.9
20260831092103 58 293 0.0 5.0 0.00 0.05 0.00 79 1015.8
20260831091602 58 294 0.0 5.0 0.00 0.05 0.00 79 1015.8
20260831091103 58 294 1.0 6.0 0.00 0.05 0.00 80 1015.8
20260831090602 58 288 1.0 9.0 0.00 0.05 0.00 80 1015.8
20260831090104 58 280 1.0 9.0 0.00 0.05 0.00 80 1015.7
20260831085605 58 291 1.0 7.0 0.00 0.05 0.00 80 1015.8
20260831085426 58 294 1.0 7.0 0.00 0.05 0.00 80 1015.8
20260831084604 58 298 1.0 4.0 0.00 0.05 0.00 81 1015.9
20260831084104 58 285 1.0 6.0 0.00 0.05 0.00 80 1015.9
20260831083604 58 276 1.0 9.0 0.00 0.05 0.00 80 1016.1
20260831083106 58 275 1.0 9.0 0.00 0.05 0.00 80 1015.8
20260831082107 58 282 1.0 7.0 0.00 0.05 0.00 80 1015.8
20260831081926 58 282 0.0 5.0 0.00 0.05 0.00 80 1015.7
20260831081105 58 283 1.0 5.0 0.00 0.05 0.00 79 1015.8
20260831080923 58 283 1.0 6.0 0.00 0.05 0.00 79 1015.8
20260831075604 58 277 1.0 10.0 0.00 0.05 0.00 79 1015.8
20260831075101 58 278 1.0 10.0 0.00 0.05 0.00 78 1015.8
20260831074600 59 275 1.0 10.0 0.00 0.05 0.00 78 1015.9
20260831074103 59 271 1.0 10.0 0.00 0.05 0.00 79 1015.9
20260831073601 59 285 1.0 7.0 0.00 0.05 0.00 78 1016.1
20260831073418 59 279 1.0 7.0 0.00 0.05 0.00 78 1015.8
20260831072602 59 285 0.0 4.0 0.00 0.05 0.00 78 1015.9
20260831072102 59 287 0.0 6.0 0.00 0.05 0.00 78 1015.9
20260831071601 59 285 1.0 6.0 0.00 0.05 0.00 78 1015.8
20260831071100 59 288 1.0 8.0 0.00 0.05 0.00 79 1015.9
20260831070605 59 300 2.0 8.0 0.00 0.05 0.00 79 1015.8
20260831070255 59 284 1.0 8.0 0.00 0.05 0.05 79 1016.1
20260831070214 59 285 1.0 8.0 0.00 0.05 0.00 80 1015.9
20260831065104 59 282 2.0 9.0 0.00 0.05 0.05 79 1016.2
20260831064605 59 274 1.0 9.0 0.00 0.05 0.05 79 1015.9
20260831064110 59 320 1.0 6.0 0.00 0.05 0.05 79 1015.9
20260831063603 59 350 1.0 8.0 0.00 0.05 0.05 79 1016.1
20260831063101 59 280 1.0 8.0 0.00 0.05 0.05 78 1016.1
20260831062601 59 283 1.0 8.0 0.00 0.05 0.05 78 1016.1
20260831062102 59 294 1.0 8.0 0.00 0.05 0.05 78 1015.9
20260831061616 59 299 1.0 8.0 0.00 0.05 0.05 77 1016.1
20260831061612 59 312 1.0 8.0 0.00 0.05 0.05 78 1016.1
20260831061604 59 282 1.0 8.0 0.00 0.05 0.05 78 1015.9
20260831055558 59 291 1.0 8.0 0.00 0.05 0.05 78 1015.9
20260831055058 59 299 1.0 5.0 0.00 0.05 0.05 78 1015.9
20260831054559 59 287 0.0 5.0 0.00 0.05 0.05 78 1016.1
20260831054058 59 297 1.0 8.0 0.00 0.05 0.05 78 1015.9
20260831053741 59 293 1.0 8.0 0.00 0.05 0.05 78 1016.1
20260831053700 59 310 1.0 8.0 0.00 0.05 0.05 78 1015.9
20260831052918 59 301 2.0 8.0 0.00 0.05 0.05 78 1015.9
20260831052418 59 292 1.0 8.0 0.00 0.05 0.05 78 1015.9
20260831051740 59 314 0.0 3.0 0.00 0.05 0.05 78 1015.9
20260831051657 59 312 1.0 5.0 0.00 0.05 0.05 78 1015.9
20260831050940 59 314 0.0 3.0 0.00 0.05 0.05 78 1016.1
20260831050057 59 314 0.0 2.0 0.00 0.05 0.05 78 1016.1
20260831045920 59 314 0.0 1.0 0.00 0.05 0.05 78 1016.1
20260831045055 59 315 0.0 1.0 0.00 0.05 0.05 78 1016.1
20260831044553 59 315 0.0 2.0 0.00 0.05 0.05 79 1016.1
20260831044052 59 315 0.0 2.0 0.00 0.05 0.05 79 1016.1
20260831043554 59 314 0.0 3.0 0.00 0.05 0.05 79 1016.1
20260831043053 59 315 0.0 4.0 0.00 0.05 0.05 79 1016.1
20260831042553 59 315 1.0 4.0 0.00 0.05 0.05 79 1015.9
20260831042053 59 328 1.0 4.0 0.00 0.05 0.05 79 1015.9
20260831041552 59 335 0.0 4.0 0.00 0.05 0.05 79 1015.9
20260831041052 59 297 1.0 6.0 0.00 0.05 0.05 79 1015.9
20260831040900 59 299 1.0 6.0 0.00 0.05 0.05 79 1015.9
20260831040052 59 282 1.0 4.0 0.00 0.05 0.05 79 1015.8
20260831035550 59 293 0.0 4.0 0.00 0.05 0.05 79 1015.8
20260831035050 59 287 0.0 5.0 0.00 0.05 0.05 79 1015.8
20260831034549 59 296 0.0 5.0 0.00 0.05 0.05 79 1015.8
20260831034143 59 347 0.0 5.0 0.00 0.05 0.05 79 1015.7
20260831033046 59 296 1.0 8.0 0.00 0.05 0.05 78 1015.7
20260831032546 59 302 1.0 10.0 0.00 0.05 0.05 78 1015.6
20260831032043 59 282 1.0 10.0 0.00 0.05 0.05 80 1015.7